Location: Amsterdam
(30.7274°N, 84.4357°W)
Time: 02:00:24
(UTC+00:00)

Transit 2A Rocket - Pass Details

Date: 17 February 2026
Orbit: 583 x 900 km, 66.7° (Epoch: 5 March)

Event Time Altitude Azimuth Distance (km) Brightness Sun altitude
Rises 06:33:28 0° 344° (NNW) 3,309 - -68.9°
Reaches altitude 10° 06:36:13 10° 354° (N) 2,321 - -68.6°
Maximum altitude 06:40:59 33° 58° (ENE) 1,203 - -68.0°
Drops below altitude 10° 06:45:20 10° 123° (ESE) 2,120 - -67.5°
Sets 06:47:44 0° 133° (SE) 2,981 - -67.2°
